AAL1142 KLGA-KDCA

Flight info

Callsign AAL1142
Flight time 0h 29m
Altitude 28000
Route BIGGY Q75 MXE CLIPR3
Aircraft A321/M-SDE3FGHIRWY/LB1

Departure

Time 2026-05-06 11:17
Airport LaGuardia Airport (KLGA)

Arrival

Time 2026-05-06 11:46
Airport Ronald Reagan Washington National Airport (KDCA)
Time Latitude Longitude Altitude Speed Heading
2026-05-06 11:08 40.77474 -73.87176 18 ft 0 kts 359°
2026-05-06 11:10 40.77472 -73.87176 18 ft 2 kts 358°
2026-05-06 11:10 40.77448 -73.87170 20 ft 4 kts 319°
2026-05-06 11:11 40.77440 -73.87147 19 ft 4 kts 248°
2026-05-06 11:11 40.77454 -73.87121 21 ft 2 kts 212°
2026-05-06 11:11 40.77456 -73.87120 21 ft 0 kts 211°
2026-05-06 11:12 40.77454 -73.87121 21 ft 1 kts 211°
2026-05-06 11:13 40.77411 -73.87143 18 ft 10 kts 171°
2026-05-06 11:13 40.77429 -73.87082 18 ft 14 kts 36°
2026-05-06 11:13 40.77536 -73.86995 17 ft 21 kts 30°
2026-05-06 11:13 40.77634 -73.86969 17 ft 13 kts 318°
2026-05-06 11:14 40.77681 -73.87075 18 ft 14 kts 303°
2026-05-06 11:14 40.77734 -73.87183 18 ft 15 kts 303°
2026-05-06 11:14 40.77771 -73.87301 18 ft 14 kts 278°
2026-05-06 11:14 40.77789 -73.87391 18 ft 9 kts 334°
2026-05-06 11:15 40.77842 -73.87431 18 ft 9 kts 304°
2026-05-06 11:15 40.77894 -73.87453 18 ft 9 kts 20°
2026-05-06 11:15 40.77964 -73.87398 18 ft 15 kts 32°
2026-05-06 11:15 40.78080 -73.87305 17 ft 23 kts 31°
2026-05-06 11:16 40.78202 -73.87222 17 ft 13 kts 347°
2026-05-06 11:16 40.78242 -73.87310 17 ft 12 kts 231°
2026-05-06 11:16 40.78140 -73.87404 16 ft 41 kts 212°
2026-05-06 11:16 40.77647 -73.87809 22 ft 122 kts 212°
2026-05-06 11:17 40.76772 -73.88532 278 ft 168 kts 209°
2026-05-06 11:17 40.75714 -73.89436 868 ft 186 kts 212°
2026-05-06 11:17 40.74621 -73.90315 1868 ft 186 kts 212°
2026-05-06 11:17 40.73314 -73.90634 2815 ft 206 kts 181°
2026-05-06 11:18 40.71877 -73.90398 3904 ft 209 kts 181°
2026-05-06 11:18 40.70416 -73.90195 4936 ft 214 kts 181°
2026-05-06 11:18 40.68923 -73.90020 5964 ft 219 kts 182°
2026-05-06 11:18 40.67366 -73.90273 6513 ft 236 kts 206°
2026-05-06 11:19 40.66083 -73.91644 7231 ft 245 kts 235°
2026-05-06 11:19 40.65443 -73.93753 8131 ft 251 kts 250°
2026-05-06 11:19 40.64956 -73.95978 9091 ft 253 kts 250°
2026-05-06 11:19 40.64465 -73.98215 9982 ft 255 kts 250°
2026-05-06 11:20 40.63953 -74.00527 10445 ft 273 kts 250°
2026-05-06 11:20 40.63392 -74.03028 10639 ft 296 kts 250°
2026-05-06 11:20 40.62787 -74.05716 10929 ft 313 kts 250°
2026-05-06 11:20 40.62169 -74.08491 11488 ft 318 kts 251°
2026-05-06 11:21 40.61545 -74.11304 12168 ft 322 kts 251°
2026-05-06 11:21 40.60906 -74.14185 12524 ft 337 kts 251°
2026-05-06 11:21 40.60232 -74.17191 12678 ft 354 kts 251°
2026-05-06 11:21 40.59523 -74.20339 13132 ft 362 kts 251°
2026-05-06 11:22 40.58804 -74.23544 13714 ft 365 kts 251°
2026-05-06 11:22 40.58081 -74.26767 14242 ft 369 kts 251°
2026-05-06 11:22 40.57599 -74.28920 14589 ft 371 kts 251°
2026-05-06 11:22 40.56690 -74.32093 15095 ft 372 kts 240°
2026-05-06 11:23 40.55349 -74.35016 15608 ft 375 kts 238°
2026-05-06 11:23 40.53989 -74.37904 16557 ft 364 kts 238°
2026-05-06 11:23 40.52685 -74.40658 17846 ft 348 kts 238°
2026-05-06 11:23 40.51408 -74.43346 18619 ft 345 kts 238°
2026-05-06 11:24 40.50134 -74.46025 19160 ft 347 kts 238°
2026-05-06 11:24 40.48849 -74.48720 19639 ft 350 kts 238°
2026-05-06 11:24 40.47551 -74.51440 20110 ft 352 kts 239°
2026-05-06 11:24 40.46247 -74.54179 20592 ft 354 kts 239°
2026-05-06 11:25 40.44926 -74.56961 20791 ft 364 kts 239°
2026-05-06 11:25 40.43565 -74.59833 20924 ft 375 kts 239°
2026-05-06 11:25 40.42168 -74.62779 21060 ft 385 kts 239°
2026-05-06 11:25 40.40733 -74.65801 21191 ft 394 kts 239°
2026-05-06 11:26 40.39266 -74.68881 21322 ft 402 kts 239°
2026-05-06 11:26 40.37760 -74.72029 21458 ft 410 kts 239°
2026-05-06 11:26 40.36244 -74.75188 21583 ft 418 kts 239°
2026-05-06 11:26 40.34678 -74.78453 21754 ft 423 kts 239°
2026-05-06 11:27 40.33100 -74.81743 21975 ft 427 kts 239°
2026-05-06 11:27 40.31513 -74.85053 22218 ft 429 kts 239°
2026-05-06 11:27 40.29939 -74.88332 22490 ft 431 kts 240°
2026-05-06 11:27 40.28338 -74.91666 22757 ft 432 kts 240°
2026-05-06 11:28 40.26729 -74.95017 23003 ft 434 kts 240°
2026-05-06 11:28 40.25117 -74.98373 23254 ft 435 kts 240°
2026-05-06 11:28 40.23492 -75.01746 23478 ft 437 kts 240°
2026-05-06 11:28 40.21865 -75.05112 23660 ft 438 kts 240°
2026-05-06 11:29 40.20231 -75.08488 23888 ft 438 kts 240°
2026-05-06 11:29 40.18618 -75.11824 23914 ft 441 kts 240°
2026-05-06 11:29 40.16971 -75.15220 23904 ft 442 kts 240°
2026-05-06 11:29 40.15299 -75.18664 23915 ft 444 kts 240°
2026-05-06 11:30 40.13645 -75.22070 23915 ft 444 kts 240°
2026-05-06 11:30 40.11986 -75.25487 23916 ft 444 kts 240°
2026-05-06 11:30 40.10330 -75.28897 23915 ft 444 kts 240°
2026-05-06 11:30 40.08675 -75.32301 23915 ft 444 kts 239°
2026-05-06 11:31 40.07014 -75.35710 23913 ft 444 kts 239°
2026-05-06 11:31 39.75306 -76.06438 23900 ft 18235 kts 240°
2026-05-06 11:31 39.70132 -76.17925 24858 ft 395 kts 242°
2026-05-06 11:31 39.68687 -76.20843 24554 ft 378 kts 239°
2026-05-06 11:32 39.67196 -76.23631 24063 ft 372 kts 237°
2026-05-06 11:32 39.65697 -76.26305 23911 ft 360 kts 237°
2026-05-06 11:32 39.64256 -76.28848 23887 ft 349 kts 237°
2026-05-06 11:32 39.62856 -76.31344 23762 ft 336 kts 237°
2026-05-06 11:33 39.61474 -76.33838 22870 ft 346 kts 238°
2026-05-06 11:33 39.60060 -76.36456 21890 ft 367 kts 238°
2026-05-06 11:33 39.58549 -76.39345 20856 ft 404 kts 238°
2026-05-06 11:33 39.56956 -76.42417 19797 ft 414 kts 237°
2026-05-06 11:34 39.55335 -76.45511 18756 ft 415 kts 236°
2026-05-06 11:34 39.53700 -76.48584 18066 ft 408 kts 236°
2026-05-06 11:34 39.52090 -76.51566 17348 ft 400 kts 235°
2026-05-06 11:34 39.50503 -76.54478 16573 ft 393 kts 234°
2026-05-06 11:35 39.48934 -76.57343 15739 ft 388 kts 234°
2026-05-06 11:35 39.47381 -76.60177 15137 ft 386 kts 234°
2026-05-06 11:35 39.45830 -76.63011 14688 ft 385 kts 234°
2026-05-06 11:35 39.44288 -76.65836 14234 ft 383 kts 234°
2026-05-06 11:36 39.42756 -76.68645 13795 ft 381 kts 234°
2026-05-06 11:36 39.41238 -76.71432 13309 ft 379 kts 234°
2026-05-06 11:36 39.39722 -76.74213 12863 ft 377 kts 234°
2026-05-06 11:36 39.38213 -76.76978 12418 ft 375 kts 233°
2026-05-06 11:37 39.36709 -76.79733 11975 ft 374 kts 233°
2026-05-06 11:37 39.35219 -76.82458 11528 ft 366 kts 233°
2026-05-06 11:37 39.33755 -76.85066 11171 ft 351 kts 229°
2026-05-06 11:37 39.31978 -76.87116 10844 ft 337 kts 214°
2026-05-06 11:38 39.30023 -76.88707 10524 ft 325 kts 213°
2026-05-06 11:38 39.28132 -76.90224 10182 ft 315 kts 213°
2026-05-06 11:38 39.26300 -76.91683 9841 ft 305 kts 212°
2026-05-06 11:38 39.24517 -76.93102 9497 ft 297 kts 213°
2026-05-06 11:39 39.22774 -76.94492 9080 ft 291 kts 213°
2026-05-06 11:39 39.21087 -76.95835 8653 ft 287 kts 213°
2026-05-06 11:39 39.19399 -76.97175 8225 ft 283 kts 213°
2026-05-06 11:39 39.17733 -76.98497 7801 ft 279 kts 213°
2026-05-06 11:40 39.16083 -76.99806 7382 ft 276 kts 213°
2026-05-06 11:40 39.14444 -77.01108 6961 ft 274 kts 213°
2026-05-06 11:40 39.12837 -77.02383 6560 ft 271 kts 213°
2026-05-06 11:40 39.11234 -77.03652 6147 ft 269 kts 213°
2026-05-06 11:41 39.09644 -77.04912 5728 ft 266 kts 213°
2026-05-06 11:41 39.08080 -77.06155 5344 ft 262 kts 214°
2026-05-06 11:41 39.06541 -77.07380 4975 ft 258 kts 214°
2026-05-06 11:41 39.05023 -77.08585 4605 ft 254 kts 214°
2026-05-06 11:42 39.03525 -77.09769 4229 ft 251 kts 214°
2026-05-06 11:42 39.02047 -77.10936 3867 ft 247 kts 214°
2026-05-06 11:42 39.00591 -77.12085 3497 ft 244 kts 214°
2026-05-06 11:42 38.99153 -77.13218 3117 ft 241 kts 214°
2026-05-06 11:43 38.97692 -77.14341 2930 ft 232 kts 210°
2026-05-06 11:43 38.96164 -77.14655 2831 ft 231 kts 177°
2026-05-06 11:43 38.94710 -77.13797 2472 ft 231 kts 155°
2026-05-06 11:44 38.92358 -77.11453 1857 ft 192 kts 156°
2026-05-06 11:44 38.91290 -77.10545 1604 ft 179 kts 144°
2026-05-06 11:44 38.90605 -77.09216 1372 ft 178 kts 118°
2026-05-06 11:44 38.90236 -77.07765 1141 ft 162 kts 123°
2026-05-06 11:45 38.89679 -77.06599 934 ft 147 kts 130°
2026-05-06 11:45 38.89081 -77.05597 779 ft 139 kts 135°
2026-05-06 11:45 38.88397 -77.04735 601 ft 140 kts 144°
2026-05-06 11:45 38.87593 -77.04021 375 ft 139 kts 161°
2026-05-06 11:46 38.86648 -77.03904 168 ft 136 kts 182°
2026-05-06 11:46 38.85717 -77.03837 40 ft 126 kts 177°
2026-05-06 11:46 38.84983 -77.03759 24 ft 74 kts 176°
2026-05-06 11:46 38.84733 -77.03768 25 ft 19 kts 202°
2026-05-06 11:47 38.84689 -77.03848 26 ft 11 kts 301°
2026-05-06 11:47 38.84766 -77.03878 24 ft 13 kts 353°
2026-05-06 11:47 38.84866 -77.03890 24 ft 19 kts 355°
2026-05-06 11:47 38.85042 -77.03908 24 ft 31 kts 355°
2026-05-06 11:48 38.85268 -77.03930 24 ft 33 kts 356°
2026-05-06 11:48 38.85486 -77.03951 24 ft 19 kts 355°
2026-05-06 11:48 38.85554 -77.03977 24 ft 9 kts 302°
2026-05-06 11:48 38.85545 -77.04056 24 ft 10 kts 252°
2026-05-06 11:49 38.85523 -77.04146 24 ft 11 kts 252°
2026-05-06 11:49 38.85503 -77.04223 24 ft 1 kts 251°
2026-05-06 11:49 38.85503 -77.04242 24 ft 3 kts 283°
2026-05-06 11:49 38.85512 -77.04251 24 ft 1 kts 333°
2026-05-06 11:50 38.85537 -77.04263 24 ft 4 kts 338°
2026-05-06 11:50 38.85552 -77.04271 24 ft 2 kts 338°
2026-05-06 11:50 38.85557 -77.04274 24 ft 1 kts 338°
2026-05-06 11:50 38.85558 -77.04274 27 ft 0 kts 338°